TimeEDT,TemperatureF,Dew PointF,Humidity,Sea Level PressureIn,VisibilityMPH,Wind Direction,Wind SpeedMPH,Gust SpeedMPH,PrecipitationIn,Events,Conditions,WindDirDegrees,DateUTC
12:15 AM,71.6,64.4,78,30.08,10.0,Calm,Calm,-,N/A,,Scattered Clouds,0,2013-05-19 04:15:00
12:35 AM,71.6,64.4,78,30.09,10.0,Calm,Calm,-,N/A,,Clear,0,2013-05-19 04:35:00
1:15 AM,69.8,64.4,83,30.08,10.0,Calm,Calm,-,N/A,,Scattered Clouds,0,2013-05-19 05:15:00
1:35 AM,69.8,64.4,83,30.07,10.0,SSE,3.5,-,N/A,,Clear,150,2013-05-19 05:35:00
1:55 AM,69.8,64.4,83,30.07,10.0,Calm,Calm,-,N/A,,Clear,0,2013-05-19 05:55:00
2:15 AM,69.8,64.4,83,30.06,10.0,Calm,Calm,-,N/A,,Clear,0,2013-05-19 06:15:00
2:35 AM,69.8,64.4,83,30.06,10.0,Calm,Calm,-,N/A,,Clear,0,2013-05-19 06:35:00
2:55 AM,68.0,64.4,88,30.06,10.0,Calm,Calm,-,N/A,,Mostly Cloudy,0,2013-05-19 06:55:00
3:15 AM,68.0,64.4,88,30.06,10.0,Calm,Calm,-,N/A,,Scattered Clouds,0,2013-05-19 07:15:00
3:35 AM,68.0,64.4,88,30.05,10.0,Calm,Calm,-,N/A,,Scattered Clouds,0,2013-05-19 07:35:00
3:55 AM,68.0,64.4,88,30.06,10.0,Calm,Calm,-,N/A,,Mostly Cloudy,0,2013-05-19 07:55:00
4:15 AM,68.0,64.4,88,30.05,10.0,Calm,Calm,-,N/A,,Mostly Cloudy,0,2013-05-19 08:15:00
4:35 AM,68.0,64.4,88,30.06,10.0,Calm,Calm,-,N/A,,Mostly Cloudy,0,2013-05-19 08:35:00
4:55 AM,66.2,64.4,94,30.06,10.0,Calm,Calm,-,N/A,,Mostly Cloudy,0,2013-05-19 08:55:00
5:15 AM,66.2,64.4,94,30.06,10.0,Calm,Calm,-,N/A,,Scattered Clouds,0,2013-05-19 09:15:00
5:35 AM,66.2,64.4,94,30.06,10.0,Calm,Calm,-,N/A,,Clear,0,2013-05-19 09:35:00
5:55 AM,64.4,64.4,100,30.06,10.0,Calm,Calm,-,N/A,,Clear,0,2013-05-19 09:55:00
6:15 AM,64.4,64.4,100,30.06,10.0,Calm,Calm,-,N/A,,Clear,0,2013-05-19 10:15:00
6:35 AM,64.4,64.4,100,30.06,10.0,Calm,Calm,-,N/A,,Clear,0,2013-05-19 10:35:00
6:55 AM,64.4,64.4,100,30.07,7.0,Calm,Calm,-,N/A,,Clear,0,2013-05-19 10:55:00
7:15 AM,64.4,64.4,100,30.09,7.0,Calm,Calm,-,N/A,,Clear,0,2013-05-19 11:15:00
7:35 AM,68.0,64.4,88,30.09,10.0,Calm,Calm,-,N/A,,Clear,0,2013-05-19 11:35:00
8:15 AM,69.8,66.2,88,30.10,10.0,Calm,Calm,-,N/A,,Scattered Clouds,0,2013-05-19 12:15:00
8:35 AM,71.6,68.0,88,30.11,10.0,SSW,3.5,-,N/A,,Clear,210,2013-05-19 12:35:00
8:55 AM,73.4,68.0,83,30.11,10.0,SSW,3.5,-,N/A,,Scattered Clouds,210,2013-05-19 12:55:00
9:15 AM,73.4,68.0,83,30.11,10.0,SSW,3.5,-,N/A,,Scattered Clouds,200,2013-05-19 13:15:00
9:35 AM,75.2,68.0,78,30.11,10.0,Calm,Calm,-,N/A,,Clear,0,2013-05-19 13:35:00
9:55 AM,77.0,68.0,74,30.11,10.0,Calm,Calm,-,N/A,,Clear,0,2013-05-19 13:55:00
10:15 AM,78.8,66.2,65,30.11,10.0,SW,4.6,-,N/A,,Clear,230,2013-05-19 14:15:00
10:55 AM,80.6,64.4,58,30.11,10.0,Calm,Calm,-,N/A,,Clear,0,2013-05-19 14:55:00
11:15 AM,82.4,64.4,54,30.11,10.0,Calm,Calm,-,N/A,,Clear,0,2013-05-19 15:15:00
11:35 AM,82.4,64.4,54,30.10,10.0,WSW,3.5,-,N/A,,Clear,240,2013-05-19 15:35:00
11:55 AM,82.4,64.4,54,30.09,10.0,South,5.8,-,N/A,,Clear,190,2013-05-19 15:55:00
12:15 PM,82.4,64.4,54,30.09,10.0,Calm,Calm,-,N/A,,Scattered Clouds,0,2013-05-19 16:15:00
12:35 PM,84.2,62.6,48,30.09,10.0,SE,4.6,-,N/A,,Mostly Cloudy,140,2013-05-19 16:35:00
12:55 PM,86.0,62.6,45,30.08,10.0,South,4.6,-,N/A,,Scattered Clouds,170,2013-05-19 16:55:00
1:15 PM,87.8,62.6,43,30.07,10.0,East,5.8,-,N/A,,Scattered Clouds,100,2013-05-19 17:15:00
1:35 PM,86.0,62.6,45,30.06,10.0,Calm,Calm,-,N/A,,Scattered Clouds,0,2013-05-19 17:35:00
1:55 PM,87.8,62.6,43,30.05,10.0,Calm,Calm,-,N/A,,Scattered Clouds,0,2013-05-19 17:55:00
2:15 PM,87.8,62.6,43,30.04,10.0,WSW,3.5,-,N/A,,Clear,240,2013-05-19 18:15:00
2:35 PM,87.8,62.6,43,30.04,10.0,Calm,Calm,-,N/A,,Clear,0,2013-05-19 18:35:00
3:15 PM,87.8,62.6,43,30.03,10.0,Calm,Calm,-,N/A,,Clear,0,2013-05-19 19:15:00
3:35 PM,87.8,62.6,43,30.03,10.0,SSW,5.8,-,N/A,,Scattered Clouds,210,2013-05-19 19:35:00
4:15 PM,89.6,62.6,40,30.02,10.0,SE,3.5,-,N/A,,Clear,140,2013-05-19 20:15:00
4:35 PM,89.6,60.8,38,30.02,10.0,Calm,Calm,-,N/A,,Clear,0,2013-05-19 20:35:00
4:55 PM,87.8,62.6,43,30.01,10.0,SW,3.5,-,N/A,,Mostly Cloudy,230,2013-05-19 20:55:00
5:15 PM,87.8,62.6,43,30.01,10.0,Calm,Calm,-,N/A,,Mostly Cloudy,0,2013-05-19 21:15:00
5:35 PM,87.8,62.6,43,30.01,10.0,Calm,Calm,-,N/A,,Mostly Cloudy,0,2013-05-19 21:35:00
5:55 PM,86.0,64.4,48,30.01,10.0,NNE,3.5,-,N/A,Thunderstorm,Mostly Cloudy,20,2013-05-19 21:55:00
6:15 PM,77.0,64.4,65,30.04,2.5,North,19.6,33.4,N/A,Rain-Thunderstorm,Heavy Thunderstorms and Rain,10,2013-05-19 22:15:00
6:35 PM,69.8,68.0,94,30.04,3.0,ENE,6.9,13.8,N/A,Rain-Thunderstorm,Heavy Thunderstorms and Rain,60,2013-05-19 22:35:00
6:55 PM,69.8,68.0,94,30.03,7.0,South,6.9,19.6,N/A,Rain-Thunderstorm,Light Thunderstorms and Rain,170,2013-05-19 22:55:00
7:15 PM,69.8,68.0,94,30.03,10.0,SSW,6.9,-,N/A,Thunderstorm,Mostly Cloudy,210,2013-05-19 23:15:00
7:35 PM,69.8,68.0,94,30.04,10.0,SSW,6.9,-,N/A,,Scattered Clouds,210,2013-05-19 23:35:00
7:55 PM,69.8,68.0,94,30.04,10.0,Calm,Calm,-,N/A,Thunderstorm,Clear,0,2013-05-19 23:55:00
8:15 PM,69.8,68.0,94,30.05,10.0,ENE,3.5,-,N/A,,Clear,70,2013-05-20 00:15:00
8:35 PM,69.8,68.0,94,30.04,10.0,Calm,Calm,-,N/A,,Clear,0,2013-05-20 00:35:00
8:55 PM,69.8,68.0,94,30.04,10.0,Calm,Calm,-,N/A,,Clear,0,2013-05-20 00:55:00
9:15 PM,69.8,69.8,100,30.05,10.0,Calm,Calm,-,N/A,,Clear,0,2013-05-20 01:15:00
9:35 PM,69.8,69.8,100,30.07,10.0,ENE,5.8,-,N/A,,Clear,70,2013-05-20 01:35:00
9:55 PM,69.8,68.0,94,30.07,10.0,Calm,Calm,-,N/A,,Clear,0,2013-05-20 01:55:00
10:15 PM,69.8,69.8,100,30.10,10.0,Calm,Calm,-,N/A,,Scattered Clouds,0,2013-05-20 02:15:00
10:35 PM,69.8,68.0,94,30.10,10.0,Calm,Calm,-,N/A,,Scattered Clouds,0,2013-05-20 02:35:00
10:55 PM,69.8,69.8,100,30.10,10.0,NE,3.5,-,N/A,,Scattered Clouds,40,2013-05-20 02:55:00
11:15 PM,69.8,68.0,94,30.09,10.0,Calm,Calm,-,N/A,,Scattered Clouds,0,2013-05-20 03:15:00
11:35 PM,69.8,68.0,94,30.10,10.0,NW,3.5,-,N/A,,Clear,320,2013-05-20 03:35:00